Regional Weather Roundup
Issued by NWS Northern Indiana

Home | Current Version | Previous Version | Text Only | Print | Product List | Glossary On
Versions: 1 2 3 4 5 6 7 8 9 10 11 12 13 14 15 16 17 18 19 20 21 22 23 24 25 26 27 28 29 30 31 32 33 34 35 36 37 38 39 40 41 42 43 44 45 46 47 48 49 50
000
ASUS43 KIWX 040410
RWRIWX

KIWX WEATHER ROUNDUP
NATIONAL WEATHER SERVICE NORTHERN INDIANA
1200 AM EDT WED MAY 04 2016

NOTE: "FAIR" INDICATES FEW OR NO CLOUDS BELOW 12,000 FEET WITH NO
SIGNIFICANT WEATHER AND/OR OBSTRUCTIONS TO VISIBILITY.

* THESE STATIONS ARE NOT UNDER NWS QUALITY CONTROL. THEY ALSO MAY NOT
  REPORT WEATHER SUCH AS PRECIPITATION OR FOG.

INZ001>027-040500-
NORTHERN INDIANA

CITY           SKY/WX    TMP DP  RH WIND       PRES   REMARKS
GARY*          CLOUDY    61  47  61 SW5       29.73F
VALPARAISO     CLOUDY    56  42  59 SW8       29.74F
MICHIGAN CITY* CLOUDY    55  41  58 S6        29.73F
LAPORTE*       CLOUDY    57  44  60 SW7       29.74F
KNOX*          MOCLDY    54  34  47 SW8       29.75F
SOUTH BEND     CLOUDY    57  41  55 SW9       29.74F
GOSHEN         CLOUDY    56  43  61 S10       29.75F
MONTICELLO*    CLOUDY    54  41  62 SW8       29.77F
LOGANSPORT*    CLOUDY    54  45  71 SW8       29.79F
ROCHESTER*     CLOUDY    57  45  62 S6        29.77F
WARSAW*        CLOUDY    54  43  66 S3        29.76F
ANGOLA*        CLOUDY    54  45  71 SW6       29.76F
FORT WAYNE     CLOUDY    52  44  74 S9        29.79F
HUNTINGTON*    MOCLDY    52  43  72 S6        29.78F
PERU/GRISSOM   CLOUDY    54  46  76 SW9       29.77F
MARION*        MOCLDY    50  44  79 S9        29.81F

$$
INZ028>050-040500-
CENTRAL INDIANA

CITY           SKY/WX    TMP DP  RH WIND       PRES   REMARKS
LAFAYETTE      CLOUDY    53  44  71 SW5       29.79F
KOKOMO*        CLOUDY    54  43  66 SW9       29.79F
MUNCIE*        MOCLDY    53  43  68 SW6       29.82F
INDIANAPOLIS   MOCLDY    54  42  64 SW9       29.82F

$$
MIZ043>046-050>051-056>058-064>065-071>073-077>080-040500-
SOUTHWEST LOWER MICHIGAN

CITY           SKY/WX    TMP DP  RH WIND       PRES   REMARKS
BATTLE CREEK   CLOUDY    56  37  49 S10       29.72F
BENTON HARBOR  CLOUDY    58  40  51 S7        29.70F
COLDWATER*     CLOUDY    55  40  55 S5        29.74F
HILLSDALE*     CLOUDY    53  37  53 S9        29.75F
HOLLAND        CLOUDY    58  40  51 S10       29.68F
GRAND RAPIDS   CLOUDY    58  38  47 S12       29.68F
KALAMAZOO      CLOUDY    57  38  48 SW12      29.72F
STURGIS*       CLOUDY    54  41  62 S8        29.74F
THREE RIVERS*  CLOUDY    56  39  52 S7        29.73F

$$
OHZ001>008-015>018-024>025-040500-
NORTHWEST OHIO

CITY           SKY/WX    TMP DP  RH WIND       PRES   REMARKS
WAUSEON*         N/A     52 N/A N/A SW9       29.77F
DEFIANCE       CLOUDY    52  44  74 S6        29.78F
FINDLAY        CLEAR     49  42  77 S7        29.79F
TOLEDO EXPRESS PTCLDY    50  42  74 S7        29.77F
TOLEDO METCALF CLEAR     51  43  74 SW7       29.78F
LIMA           CLEAR     49  43  80 S7        29.80F

$$
AND FOR LAKE MICHIGAN COASTAL AND OPEN LAKE BUOY OBSERVATIONS

STATION/POSITION TEMP    WIND        PRES    VSBY  WAVE
                 AIR SEA DIR/SP/G                  HT/PER
                 (F)     (DEG/KT/KT) (MB)    (MI)  (FT/S)
CALUMET HARBOR    61     210/  7/ 10 1006.7F
MICHIGAN CITY     60     180/ 10/ 12   N/A
BURNS HARBOR      61     210/ 10/ 13 1008.1F
SAINT JOSEPH      58     180/ 13/ 17 1006.1F
SOUTH LAKE BUOY   46 41  200/ 10/ 12 1004.5F         1/ 3
4 MI NW BRIDGMAN  54 49                N/A           1

$$
&&



USA.gov is the U.S. government's official web portal to all federal, state and local government web resources and services.